Year,Month,Day,Hour,Minute,Value (Times are PST for insolation in W/m^2)
2015,10,01,00,00,0.00
2015,10,01,00,01,0.00
2015,10,01,00,02,0.00
2015,10,01,00,03,0.00
2015,10,01,00,04,0.00
2015,10,01,00,05,0.00
2015,10,01,00,06,0.00
2015,10,01,00,07,0.00
2015,10,01,00,08,0.00
2015,10,01,00,09,0.00
2015,10,01,00,10,0.00
2015,10,01,00,11,0.00
2015,10,01,00,12,0.00
2015,10,01,00,13,0.00
2015,10,01,00,14,0.00
2015,10,01,00,15,0.00
2015,10,01,00,16,0.00
2015,10,01,00,17,0.00
2015,10,01,00,18,0.00
2015,10,01,00,19,0.00
2015,10,01,00,20,0.00
2015,10,01,00,21,0.00
2015,10,01,00,22,0.00
2015,10,01,00,23,0.00
2015,10,01,00,24,0.00
2015,10,01,00,25,0.00
2015,10,01,00,26,0.00
2015,10,01,00,27,0.00
2015,10,01,00,28,0.00
2015,10,01,00,29,0.00
2015,10,01,00,30,0.00
2015,10,01,00,31,0.00
2015,10,01,00,32,0.00
2015,10,01,00,33,0.00
2015,10,01,00,34,0.00
2015,10,01,00,35,0.00
2015,10,01,00,36,0.00
2015,10,01,00,37,0.00
2015,10,01,00,38,0.00
2015,10,01,00,39,0.00
2015,10,01,00,40,0.00
2015,10,01,00,41,0.00
2015,10,01,00,42,0.00
2015,10,01,00,43,0.00
2015,10,01,00,44,0.00
2015,10,01,00,45,0.00
2015,10,01,00,46,0.00
2015,10,01,00,47,0.00
2015,10,01,00,48,0.00
2015,10,01,00,49,0.00
2015,10,01,00,50,0.00
2015,10,01,00,51,0.00
2015,10,01,00,52,0.00
2015,10,01,00,53,0.00
2015,10,01,00,54,0.00
2015,10,01,00,55,0.00
2015,10,01,00,56,0.00
2015,10,01,00,57,0.00
2015,10,01,00,58,0.00
2015,10,01,00,59,0.00
2015,10,01,01,00,0.00
2015,10,01,01,01,0.00
2015,10,01,01,02,0.00
2015,10,01,01,03,0.00
2015,10,01,01,04,0.00
2015,10,01,01,05,0.00
2015,10,01,01,06,0.00
2015,10,01,01,07,0.00
2015,10,01,01,08,0.00
2015,10,01,01,09,0.00
2015,10,01,01,10,0.00
2015,10,01,01,11,0.00
2015,10,01,01,12,0.00
2015,10,01,01,13,0.00
2015,10,01,01,14,0.00
2015,10,01,01,15,0.00
2015,10,01,01,16,0.00
2015,10,01,01,17,0.00
2015,10,01,01,18,0.00
2015,10,01,01,19,0.00
2015,10,01,01,20,0.00
2015,10,01,01,21,0.00
2015,10,01,01,22,0.00
2015,10,01,01,23,0.00
2015,10,01,01,24,0.00
2015,10,01,01,25,0.00
2015,10,01,01,26,0.00
2015,10,01,01,27,0.00
2015,10,01,01,28,0.00
2015,10,01,01,29,0.00
2015,10,01,01,30,0.00
2015,10,01,01,31,0.00
2015,10,01,01,32,0.00
2015,10,01,01,33,0.00
2015,10,01,01,34,0.00
2015,10,01,01,35,0.00
2015,10,01,01,36,0.00
2015,10,01,01,37,0.00
2015,10,01,01,38,0.00
2015,10,01,01,39,0.00
2015,10,01,01,40,0.00
2015,10,01,01,41,0.00
2015,10,01,01,42,0.00
2015,10,01,01,43,0.00
2015,10,01,01,44,0.00
2015,10,01,01,45,0.00
2015,10,01,01,46,0.00
2015,10,01,01,47,0.00
2015,10,01,01,48,0.00
2015,10,01,01,49,0.00
2015,10,01,01,50,0.00
2015,10,01,01,51,0.00
2015,10,01,01,52,0.00
2015,10,01,01,53,0.00
2015,10,01,01,54,0.00
2015,10,01,01,55,0.00
2015,10,01,01,56,0.00
2015,10,01,01,57,0.00
2015,10,01,01,58,0.00
2015,10,01,01,59,0.00
2015,10,01,02,00,0.00
2015,10,01,02,01,0.00
2015,10,01,02,02,0.00
2015,10,01,02,03,0.00
2015,10,01,02,04,0.00
2015,10,01,02,05,0.00
2015,10,01,02,06,0.00
2015,10,01,02,07,0.00
2015,10,01,02,08,0.00
2015,10,01,02,09,0.00
2015,10,01,02,10,0.00
2015,10,01,02,11,0.00
2015,10,01,02,12,0.00
2015,10,01,02,13,0.00
2015,10,01,02,14,0.00
2015,10,01,02,15,0.00
2015,10,01,02,16,0.00
2015,10,01,02,17,0.00
2015,10,01,02,18,0.00
2015,10,01,02,19,0.00
2015,10,01,02,20,0.00
2015,10,01,02,21,0.00
2015,10,01,02,22,0.00
2015,10,01,02,23,0.00
2015,10,01,02,24,0.00
2015,10,01,02,25,0.00
2015,10,01,02,26,0.00
2015,10,01,02,27,0.00
2015,10,01,02,28,0.00
2015,10,01,02,29,0.00
2015,10,01,02,30,0.00
2015,10,01,02,31,0.00
2015,10,01,02,32,0.00
2015,10,01,02,33,0.00
2015,10,01,02,34,0.00
2015,10,01,02,35,0.00
2015,10,01,02,36,0.00
2015,10,01,02,37,0.00
2015,10,01,02,38,0.00
2015,10,01,02,39,0.00
2015,10,01,02,40,0.00
2015,10,01,02,41,0.00
2015,10,01,02,42,0.00
2015,10,01,02,43,0.00
2015,10,01,02,44,0.00
2015,10,01,02,45,0.00
2015,10,01,02,46,0.00
2015,10,01,02,47,0.00
2015,10,01,02,48,0.00
2015,10,01,02,49,0.00
2015,10,01,02,50,0.00
2015,10,01,02,51,0.00
2015,10,01,02,52,0.00
2015,10,01,02,53,0.00
2015,10,01,02,54,0.00
2015,10,01,02,55,0.00
2015,10,01,02,56,0.00
2015,10,01,02,57,0.00
2015,10,01,02,58,0.00
2015,10,01,02,59,0.00
2015,10,01,03,00,0.00
2015,10,01,03,01,0.00
2015,10,01,03,02,0.00
2015,10,01,03,03,0.00
2015,10,01,03,04,0.00
2015,10,01,03,05,0.00
2015,10,01,03,06,0.00
2015,10,01,03,07,0.00
2015,10,01,03,08,0.00
2015,10,01,03,09,0.00
2015,10,01,03,10,0.00
2015,10,01,03,11,0.00
2015,10,01,03,12,0.00
2015,10,01,03,13,0.00
2015,10,01,03,14,0.00
2015,10,01,03,15,0.00
2015,10,01,03,16,0.00
2015,10,01,03,17,0.00
2015,10,01,03,18,0.00
2015,10,01,03,19,0.00
2015,10,01,03,20,0.00
2015,10,01,03,21,0.00
2015,10,01,03,22,0.00
2015,10,01,03,23,0.00
2015,10,01,03,24,0.00
2015,10,01,03,25,0.00
2015,10,01,03,26,0.00
2015,10,01,03,27,0.00
2015,10,01,03,28,0.00
2015,10,01,03,29,0.00
2015,10,01,03,30,0.00
2015,10,01,03,31,0.00
2015,10,01,03,32,0.00
2015,10,01,03,33,0.00
2015,10,01,03,34,0.00
2015,10,01,03,35,0.00
2015,10,01,03,36,0.00
2015,10,01,03,37,0.00
2015,10,01,03,38,0.00
2015,10,01,03,39,0.00
2015,10,01,03,40,0.00
2015,10,01,03,41,0.00
2015,10,01,03,42,0.00
2015,10,01,03,43,0.00
2015,10,01,03,44,0.00
2015,10,01,03,45,0.00
2015,10,01,03,46,0.00
2015,10,01,03,47,0.00
2015,10,01,03,48,0.00
2015,10,01,03,49,0.00
2015,10,01,03,50,0.00
2015,10,01,03,51,0.00
2015,10,01,03,52,0.00
2015,10,01,03,53,0.00
2015,10,01,03,54,0.00
2015,10,01,03,55,0.00
2015,10,01,03,56,0.00
2015,10,01,03,57,0.00
2015,10,01,03,58,0.00
2015,10,01,03,59,0.00
2015,10,01,04,00,0.00
2015,10,01,04,01,0.00
2015,10,01,04,02,0.00
2015,10,01,04,03,0.00
2015,10,01,04,04,0.00
2015,10,01,04,05,0.00
2015,10,01,04,06,0.00
2015,10,01,04,07,0.00
2015,10,01,04,08,0.00
2015,10,01,04,09,0.00
2015,10,01,04,10,0.00
2015,10,01,04,11,0.00
2015,10,01,04,12,0.00
2015,10,01,04,13,0.00
2015,10,01,04,14,0.00
2015,10,01,04,15,0.00
2015,10,01,04,16,0.00
2015,10,01,04,17,0.00
2015,10,01,04,18,0.00
2015,10,01,04,19,0.00
2015,10,01,04,20,0.00
2015,10,01,04,21,0.00
2015,10,01,04,22,0.00
2015,10,01,04,23,0.00
2015,10,01,04,24,0.00
2015,10,01,04,25,0.00
2015,10,01,04,26,0.00
2015,10,01,04,27,0.00
2015,10,01,04,28,0.00
2015,10,01,04,29,0.00
2015,10,01,04,30,0.00
2015,10,01,04,31,0.00
2015,10,01,04,32,0.00
2015,10,01,04,33,0.00
2015,10,01,04,34,0.00
2015,10,01,04,35,0.00
2015,10,01,04,36,0.00
2015,10,01,04,37,0.00
2015,10,01,04,38,0.00
2015,10,01,04,39,0.00
2015,10,01,04,40,0.00
2015,10,01,04,41,0.00
2015,10,01,04,42,0.00
2015,10,01,04,43,0.00
2015,10,01,04,44,0.00
2015,10,01,04,45,0.00
2015,10,01,04,46,0.00
2015,10,01,04,47,0.00
2015,10,01,04,48,0.00
2015,10,01,04,49,0.00
2015,10,01,04,50,0.00
2015,10,01,04,51,0.00
2015,10,01,04,52,0.00
2015,10,01,04,53,0.00
2015,10,01,04,54,0.00
2015,10,01,04,55,0.00
2015,10,01,04,56,0.00
2015,10,01,04,57,0.00
2015,10,01,04,58,0.00
2015,10,01,04,59,0.00
2015,10,01,05,00,0.00
2015,10,01,05,01,0.00
2015,10,01,05,02,0.00
2015,10,01,05,03,0.00
2015,10,01,05,04,0.00
2015,10,01,05,05,0.00
2015,10,01,05,06,0.00
2015,10,01,05,07,0.00
2015,10,01,05,08,0.00
2015,10,01,05,09,0.00
2015,10,01,05,10,0.00
2015,10,01,05,11,0.00
2015,10,01,05,12,0.00
2015,10,01,05,13,0.00
2015,10,01,05,14,0.00
2015,10,01,05,15,0.00
2015,10,01,05,16,0.00
2015,10,01,05,17,0.00
2015,10,01,05,18,0.00
2015,10,01,05,19,0.00
2015,10,01,05,20,0.00
2015,10,01,05,21,0.00
2015,10,01,05,22,0.00
2015,10,01,05,23,0.00
2015,10,01,05,24,0.00
2015,10,01,05,25,0.00
2015,10,01,05,26,0.00
2015,10,01,05,27,0.00
2015,10,01,05,28,0.00
2015,10,01,05,29,0.00
2015,10,01,05,30,0.00
2015,10,01,05,31,0.00
2015,10,01,05,32,0.00
2015,10,01,05,33,0.00
2015,10,01,05,34,0.00
2015,10,01,05,35,0.00
2015,10,01,05,36,0.00
2015,10,01,05,37,0.00
2015,10,01,05,38,0.00
2015,10,01,05,39,0.00
2015,10,01,05,40,0.00
2015,10,01,05,41,0.00
2015,10,01,05,42,0.00
2015,10,01,05,43,0.00
2015,10,01,05,44,0.00
2015,10,01,05,45,0.00
2015,10,01,05,46,0.00
2015,10,01,05,47,0.00
2015,10,01,05,48,0.00
2015,10,01,05,49,0.00
2015,10,01,05,50,0.00
2015,10,01,05,51,0.00
2015,10,01,05,52,0.00
2015,10,01,05,53,0.00
2015,10,01,05,54,0.00
2015,10,01,05,55,0.00
2015,10,01,05,56,0.00
2015,10,01,05,57,0.00
2015,10,01,05,58,0.00
2015,10,01,05,59,0.00
2015,10,01,06,00,0.00
2015,10,01,06,01,0.00
2015,10,01,06,02,0.00
2015,10,01,06,03,0.00
2015,10,01,06,04,0.00
2015,10,01,06,05,0.00
2015,10,01,06,06,0.00
2015,10,01,06,07,0.00
2015,10,01,06,08,0.00
2015,10,01,06,09,0.00
2015,10,01,06,10,0.00
2015,10,01,06,11,0.00
2015,10,01,06,12,0.00
2015,10,01,06,13,0.00
2015,10,01,06,14,0.00
2015,10,01,06,15,0.00
2015,10,01,06,16,0.00
2015,10,01,06,17,0.00
2015,10,01,06,18,0.00
2015,10,01,06,19,0.00
2015,10,01,06,20,0.00
2015,10,01,06,21,0.00
2015,10,01,06,22,0.00
2015,10,01,06,23,0.00
2015,10,01,06,24,0.00
2015,10,01,06,25,0.00
2015,10,01,06,26,0.00
2015,10,01,06,27,0.00
2015,10,01,06,28,0.00
2015,10,01,06,29,0.00
2015,10,01,06,30,0.00
2015,10,01,06,31,0.00
2015,10,01,06,32,0.00
2015,10,01,06,33,0.00
2015,10,01,06,34,0.00
2015,10,01,06,35,0.00
2015,10,01,06,36,0.00
2015,10,01,06,37,0.00
2015,10,01,06,38,0.00
2015,10,01,06,39,0.00
2015,10,01,06,40,0.00
2015,10,01,06,41,0.00
2015,10,01,06,42,0.00
2015,10,01,06,43,0.00
2015,10,01,06,44,0.00
2015,10,01,06,45,0.00
2015,10,01,06,46,0.00
2015,10,01,06,47,0.00
2015,10,01,06,48,0.00
2015,10,01,06,49,0.00
2015,10,01,06,50,0.00
2015,10,01,06,51,0.00
2015,10,01,06,52,0.00
2015,10,01,06,53,0.00
2015,10,01,06,54,0.00
2015,10,01,06,55,0.00
2015,10,01,06,56,0.00
2015,10,01,06,57,0.00
2015,10,01,06,58,0.00
2015,10,01,06,59,0.00
2015,10,01,07,00,0.00
2015,10,01,07,01,0.00
2015,10,01,07,02,0.00
2015,10,01,07,03,0.00
2015,10,01,07,04,0.00
2015,10,01,07,05,0.00
2015,10,01,07,06,0.00
2015,10,01,07,07,0.00
2015,10,01,07,08,0.00
2015,10,01,07,09,0.00
2015,10,01,07,10,0.00
2015,10,01,07,11,0.00
2015,10,01,07,12,0.00
2015,10,01,07,13,0.00
2015,10,01,07,14,0.00
2015,10,01,07,15,0.00
2015,10,01,07,16,0.00
2015,10,01,07,17,0.00
2015,10,01,07,18,1.60
2015,10,01,07,19,5.00
2015,10,01,07,20,5.00
2015,10,01,07,21,5.00
2015,10,01,07,22,5.10
2015,10,01,07,23,7.00
2015,10,01,07,24,7.00
2015,10,01,07,25,7.00
2015,10,01,07,26,8.30
2015,10,01,07,27,9.00
2015,10,01,07,28,9.00
2015,10,01,07,29,9.40
2015,10,01,07,30,11.00
2015,10,01,07,31,11.00
2015,10,01,07,32,11.00
2015,10,01,07,33,11.00
2015,10,01,07,34,11.90
2015,10,01,07,35,12.00
2015,10,01,07,36,12.00
2015,10,01,07,37,13.10
2015,10,01,07,38,14.00
2015,10,01,07,39,14.00
2015,10,01,07,40,14.00
2015,10,01,07,41,14.60
2015,10,01,07,42,16.00
2015,10,01,07,43,16.00
2015,10,01,07,44,16.00
2015,10,01,07,45,16.00
2015,10,01,07,46,18.00
2015,10,01,07,47,18.00
2015,10,01,07,48,18.00
2015,10,01,07,49,18.00
2015,10,01,07,50,18.70
2015,10,01,07,51,19.00
2015,10,01,07,52,19.00
2015,10,01,07,53,19.00
2015,10,01,07,54,19.90
2015,10,01,07,55,21.00
2015,10,01,07,56,21.00
2015,10,01,07,57,21.00
2015,10,01,07,58,21.00
2015,10,01,07,59,21.60
2015,10,01,08,00,23.00
2015,10,01,08,01,23.00
2015,10,01,08,02,23.00
2015,10,01,08,03,23.00
2015,10,01,08,04,23.40
2015,10,01,08,05,25.00
2015,10,01,08,06,25.00
2015,10,01,08,07,25.00
2015,10,01,08,08,25.00
2015,10,01,08,09,25.10
2015,10,01,08,10,26.00
2015,10,01,08,11,26.00
2015,10,01,08,12,26.00
2015,10,01,08,13,26.00
2015,10,01,08,14,26.00
2015,10,01,08,15,26.00
2015,10,01,08,16,26.50
2015,10,01,08,17,28.00
2015,10,01,08,18,28.00
2015,10,01,08,19,28.00
2015,10,01,08,20,28.00
2015,10,01,08,21,28.00
2015,10,01,08,22,28.00
2015,10,01,08,23,28.00
2015,10,01,08,24,29.10
2015,10,01,08,25,30.00
2015,10,01,08,26,30.00
2015,10,01,08,27,30.00
2015,10,01,08,28,30.00
2015,10,01,08,29,30.00
2015,10,01,08,30,30.00
2015,10,01,08,31,31.50
2015,10,01,08,32,32.00
2015,10,01,08,33,32.20
2015,10,01,08,34,33.00
2015,10,01,08,35,33.00
2015,10,01,08,36,33.00
2015,10,01,08,37,33.00
2015,10,01,08,38,33.00
2015,10,01,08,39,33.80
2015,10,01,08,40,38.60
2015,10,01,08,41,47.40
2015,10,01,08,42,74.40
2015,10,01,08,43,95.10
2015,10,01,08,44,107.40
2015,10,01,08,45,141.40
2015,10,01,08,46,173.60
2015,10,01,08,47,187.00
2015,10,01,08,48,189.30
2015,10,01,08,49,191.60
2015,10,01,08,50,194.90
2015,10,01,08,51,197.50
2015,10,01,08,52,200.10
2015,10,01,08,53,203.00
2015,10,01,08,54,205.30
2015,10,01,08,55,206.80
2015,10,01,08,56,210.80
2015,10,01,08,57,213.30
2015,10,01,08,58,214.70
2015,10,01,08,59,217.00
2015,10,01,09,00,219.90
2015,10,01,09,01,224.20
2015,10,01,09,02,227.20
2015,10,01,09,03,229.80
2015,10,01,09,04,233.60
2015,10,01,09,05,236.60
2015,10,01,09,06,238.40
2015,10,01,09,07,240.70
2015,10,01,09,08,243.10
2015,10,01,09,09,244.50
2015,10,01,09,10,247.60
2015,10,01,09,11,250.60
2015,10,01,09,12,252.50
2015,10,01,09,13,254.80
2015,10,01,09,14,257.10
2015,10,01,09,15,258.60
2015,10,01,09,16,260.90
2015,10,01,09,17,263.20
2015,10,01,09,18,264.70
2015,10,01,09,19,266.90
2015,10,01,09,20,269.00
2015,10,01,09,21,269.90
2015,10,01,09,22,272.90
2015,10,01,09,23,275.20
2015,10,01,09,24,277.50
2015,10,01,09,25,278.20
2015,10,01,09,26,281.40
2015,10,01,09,27,284.50
2015,10,01,09,28,287.50
2015,10,01,09,29,289.30
2015,10,01,09,30,291.60
2015,10,01,09,31,293.90
2015,10,01,09,32,295.50
2015,10,01,09,33,297.70
2015,10,01,09,34,300.00
2015,10,01,09,35,301.60
2015,10,01,09,36,305.20
2015,10,01,09,37,307.90
2015,10,01,09,38,310.00
2015,10,01,09,39,313.00
2015,10,01,09,40,314.60
2015,10,01,09,41,317.30
2015,10,01,09,42,319.70
2015,10,01,09,43,322.10
2015,10,01,09,44,323.50
2015,10,01,09,45,325.90
2015,10,01,09,46,328.20
2015,10,01,09,47,331.10
2015,10,01,09,48,332.00
2015,10,01,09,49,336.20
2015,10,01,09,50,338.30
2015,10,01,09,51,339.90
2015,10,01,09,52,342.20
2015,10,01,09,53,344.50
2015,10,01,09,54,347.50
2015,10,01,09,55,350.30
2015,10,01,09,56,352.30
2015,10,01,09,57,353.90
2015,10,01,09,58,356.20
2015,10,01,09,59,358.50
2015,10,01,10,00,359.90
2015,10,01,10,01,362.60
2015,10,01,10,02,366.40
2015,10,01,10,03,367.90
2015,10,01,10,04,370.20
2015,10,01,10,05,372.50
2015,10,01,10,06,374.10
2015,10,01,10,07,376.80
2015,10,01,10,08,380.00
2015,10,01,10,09,381.40
2015,10,01,10,10,384.30
2015,10,01,10,11,386.50
2015,10,01,10,12,388.10
2015,10,01,10,13,390.40
2015,10,01,10,14,392.70
2015,10,01,10,15,395.10
2015,10,01,10,16,396.60
2015,10,01,10,17,398.60
2015,10,01,10,18,401.10
2015,10,01,10,19,403.80
2015,10,01,10,20,406.70
2015,10,01,10,21,409.10
2015,10,01,10,22,410.00
2015,10,01,10,23,412.50
2015,10,01,10,24,415.10
2015,10,01,10,25,417.00
2015,10,01,10,26,418.30
2015,10,01,10,27,421.10
2015,10,01,10,28,423.40
2015,10,01,10,29,424.80
2015,10,01,10,30,427.00
2015,10,01,10,31,428.10
2015,10,01,10,32,431.50
2015,10,01,10,33,433.20
2015,10,01,10,34,435.50
2015,10,01,10,35,437.80
2015,10,01,10,36,439.30
2015,10,01,10,37,441.00
2015,10,01,10,38,442.80
2015,10,01,10,39,445.00
2015,10,01,10,40,447.10
2015,10,01,10,41,448.10
2015,10,01,10,42,450.80
2015,10,01,10,43,454.00
2015,10,01,10,44,454.50
2015,10,01,10,45,457.40
2015,10,01,10,46,459.00
2015,10,01,10,47,461.80
2015,10,01,10,48,464.40
2015,10,01,10,49,466.70
2015,10,01,10,50,468.50
2015,10,01,10,51,470.20
2015,10,01,10,52,472.50
2015,10,01,10,53,475.90
2015,10,01,10,54,476.00
2015,10,01,10,55,477.40
2015,10,01,10,56,481.50
2015,10,01,10,57,483.00
2015,10,01,10,58,483.00
2015,10,01,10,59,487.00
2015,10,01,11,00,489.20
2015,10,01,11,01,490.80
2015,10,01,11,02,493.10
2015,10,01,11,03,495.40
2015,10,01,11,04,496.80
2015,10,01,11,05,499.20
2015,10,01,11,06,501.00
2015,10,01,11,07,501.80
2015,10,01,11,08,503.50
2015,10,01,11,09,505.40
2015,10,01,11,10,506.00
2015,10,01,11,11,510.00
2015,10,01,11,12,510.60
2015,10,01,11,13,512.50
2015,10,01,11,14,513.00
2015,10,01,11,15,514.40
2015,10,01,11,16,516.70
2015,10,01,11,17,517.50
2015,10,01,11,18,520.00
2015,10,01,11,19,520.90
2015,10,01,11,20,523.20
2015,10,01,11,21,524.00
2015,10,01,11,22,525.80
2015,10,01,11,23,527.00
2015,10,01,11,24,527.00
2015,10,01,11,25,528.00
2015,10,01,11,26,530.30
2015,10,01,11,27,532.50
2015,10,01,11,28,533.10
2015,10,01,11,29,534.40
2015,10,01,11,30,535.30
2015,10,01,11,31,535.00
2015,10,01,11,32,537.30
2015,10,01,11,33,538.00
2015,10,01,11,34,539.90
2015,10,01,11,35,541.00
2015,10,01,11,36,541.70
2015,10,01,11,37,543.00
2015,10,01,11,38,544.40
2015,10,01,11,39,545.00
2015,10,01,11,40,545.20
2015,10,01,11,41,547.20
2015,10,01,11,42,548.70
2015,10,01,11,43,550.00
2015,10,01,11,44,551.40
2015,10,01,11,45,552.00
2015,10,01,11,46,553.90
2015,10,01,11,47,554.20
2015,10,01,11,48,555.00
2015,10,01,11,49,555.00
2015,10,01,11,50,555.00
2015,10,01,11,51,555.00
2015,10,01,11,52,557.20
2015,10,01,11,53,559.50
2015,10,01,11,54,561.00
2015,10,01,11,55,561.00
2015,10,01,11,56,563.10
2015,10,01,11,57,564.00
2015,10,01,11,58,564.00
2015,10,01,11,59,564.60
2015,10,01,12,00,566.00
2015,10,01,12,01,566.00
2015,10,01,12,02,567.50
2015,10,01,12,03,568.10
2015,10,01,12,04,570.00
2015,10,01,12,05,570.30
2015,10,01,12,06,571.90
2015,10,01,12,07,573.00
2015,10,01,12,08,573.00
2015,10,01,12,09,573.10
2015,10,01,12,10,575.40
2015,10,01,12,11,577.00
2015,10,01,12,12,577.00
2015,10,01,12,13,577.60
2015,10,01,12,14,578.00
2015,10,01,12,15,578.10
2015,10,01,12,16,580.00
2015,10,01,12,17,580.70
2015,10,01,12,18,581.00
2015,10,01,12,19,582.60
2015,10,01,12,20,584.00
2015,10,01,12,21,584.00
2015,10,01,12,22,584.20
2015,10,01,12,23,585.00
2015,10,01,12,24,585.00
2015,10,01,12,25,585.00
2015,10,01,12,26,586.70
2015,10,01,12,27,584.30
2015,10,01,12,28,587.50
2015,10,01,12,29,589.00
2015,10,01,12,30,589.00
2015,10,01,12,31,589.00
2015,10,01,12,32,590.70
2015,10,01,12,33,591.00
2015,10,01,12,34,591.00
2015,10,01,12,35,591.40
2015,10,01,12,36,591.40
2015,10,01,12,37,591.70
2015,10,01,12,38,591.20
2015,10,01,12,39,592.00
2015,10,01,12,40,592.00
2015,10,01,12,41,592.90
2015,10,01,12,42,592.80
2015,10,01,12,43,593.50
2015,10,01,12,44,595.60
2015,10,01,12,45,594.40
2015,10,01,12,46,595.40
2015,10,01,12,47,594.90
2015,10,01,12,48,596.00
2015,10,01,12,49,597.50
2015,10,01,12,50,598.00
2015,10,01,12,51,598.20
2015,10,01,12,52,598.70
2015,10,01,12,53,598.50
2015,10,01,12,54,599.00
2015,10,01,12,55,599.00
2015,10,01,12,56,599.00
2015,10,01,12,57,599.50
2015,10,01,12,58,600.30
2015,10,01,12,59,600.00
2015,10,01,13,00,601.00
2015,10,01,13,01,601.00
2015,10,01,13,02,601.00
2015,10,01,13,03,601.00
2015,10,01,13,04,601.00
2015,10,01,13,05,601.00
2015,10,01,13,06,601.00
2015,10,01,13,07,601.00
2015,10,01,13,08,599.40
2015,10,01,13,09,601.00
2015,10,01,13,10,601.00
2015,10,01,13,11,602.10
2015,10,01,13,12,600.20
2015,10,01,13,13,599.00
2015,10,01,13,14,602.50
2015,10,01,13,15,601.00
2015,10,01,13,16,601.00
2015,10,01,13,17,601.00
2015,10,01,13,18,601.00
2015,10,01,13,19,599.30
2015,10,01,13,20,599.00
2015,10,01,13,21,599.60
2015,10,01,13,22,601.00
2015,10,01,13,23,599.80
2015,10,01,13,24,599.00
2015,10,01,13,25,599.00
2015,10,01,13,26,599.00
2015,10,01,13,27,599.00
2015,10,01,13,28,599.00
2015,10,01,13,29,599.00
2015,10,01,13,30,599.00
2015,10,01,13,31,598.10
2015,10,01,13,32,598.00
2015,10,01,13,33,597.30
2015,10,01,13,34,597.00
2015,10,01,13,35,598.00
2015,10,01,13,36,598.00
2015,10,01,13,37,596.40
2015,10,01,13,38,597.60
2015,10,01,13,39,596.00
2015,10,01,13,40,596.00
2015,10,01,13,41,596.00
2015,10,01,13,42,596.00
2015,10,01,13,43,594.10
2015,10,01,13,44,594.00
2015,10,01,13,45,593.20
2015,10,01,13,46,592.00
2015,10,01,13,47,592.00
2015,10,01,13,48,592.00
2015,10,01,13,49,592.00
2015,10,01,13,50,591.70
2015,10,01,13,51,591.00
2015,10,01,13,52,591.00
2015,10,01,13,53,589.50
2015,10,01,13,54,590.60
2015,10,01,13,55,590.70
2015,10,01,13,56,589.00
2015,10,01,13,57,588.20
2015,10,01,13,58,587.00
2015,10,01,13,59,587.00
2015,10,01,14,00,587.00
2015,10,01,14,01,586.70
2015,10,01,14,02,585.00
2015,10,01,14,03,585.00
2015,10,01,14,04,584.40
2015,10,01,14,05,582.40
2015,10,01,14,06,583.70
2015,10,01,14,07,582.00
2015,10,01,14,08,582.00
2015,10,01,14,09,581.00
2015,10,01,14,10,580.00
2015,10,01,14,11,578.50
2015,10,01,14,12,578.00
2015,10,01,14,13,578.00
2015,10,01,14,14,578.00
2015,10,01,14,15,577.50
2015,10,01,14,16,577.00
2015,10,01,14,17,575.50
2015,10,01,14,18,576.70
2015,10,01,14,19,575.00
2015,10,01,14,20,574.30
2015,10,01,14,21,572.00
2015,10,01,14,22,572.40
2015,10,01,14,23,571.50
2015,10,01,14,24,571.00
2015,10,01,14,25,570.80
2015,10,01,14,26,569.20
2015,10,01,14,27,568.00
2015,10,01,14,28,568.00
2015,10,01,14,29,566.40
2015,10,01,14,30,565.80
2015,10,01,14,31,564.00
2015,10,01,14,32,564.00
2015,10,01,14,33,563.50
2015,10,01,14,34,563.00
2015,10,01,14,35,563.00
2015,10,01,14,36,561.00
2015,10,01,14,37,561.00
2015,10,01,14,38,561.00
2015,10,01,14,39,558.80
2015,10,01,14,40,557.00
2015,10,01,14,41,555.30
2015,10,01,14,42,555.00
2015,10,01,14,43,554.70
2015,10,01,14,44,554.00
2015,10,01,14,45,554.00
2015,10,01,14,46,554.00
2015,10,01,14,47,550.40
2015,10,01,14,48,550.00
2015,10,01,14,49,549.40
2015,10,01,14,50,548.00
2015,10,01,14,51,547.40
2015,10,01,14,52,545.40
2015,10,01,14,53,543.30
2015,10,01,14,54,544.60
2015,10,01,14,55,542.30
2015,10,01,14,56,540.50
2015,10,01,14,57,540.00
2015,10,01,14,58,540.00
2015,10,01,14,59,538.00
2015,10,01,15,00,535.50
2015,10,01,15,01,533.60
2015,10,01,15,02,533.00
2015,10,01,15,03,533.00
2015,10,01,15,04,531.40
2015,10,01,15,05,529.00
2015,10,01,15,06,528.50
2015,10,01,15,07,526.60
2015,10,01,15,08,525.00
2015,10,01,15,09,522.70
2015,10,01,15,10,522.00
2015,10,01,15,11,520.00
2015,10,01,15,12,519.00
2015,10,01,15,13,518.20
2015,10,01,15,14,517.00
2015,10,01,15,15,515.60
2015,10,01,15,16,513.20
2015,10,01,15,17,511.70
2015,10,01,15,18,510.00
2015,10,01,15,19,508.40
2015,10,01,15,20,506.00
2015,10,01,15,21,504.50
2015,10,01,15,22,503.10
2015,10,01,15,23,502.70
2015,10,01,15,24,500.40
2015,10,01,15,25,499.00
2015,10,01,15,26,497.80
2015,10,01,15,27,496.20
2015,10,01,15,28,494.10
2015,10,01,15,29,492.00
2015,10,01,15,30,491.40
2015,10,01,15,31,489.50
2015,10,01,15,32,486.50
2015,10,01,15,33,485.00
2015,10,01,15,34,483.10
2015,10,01,15,35,481.20
2015,10,01,15,36,478.00
2015,10,01,15,37,477.00
2015,10,01,15,38,476.00
2015,10,01,15,39,473.80
2015,10,01,15,40,471.10
2015,10,01,15,41,470.50
2015,10,01,15,42,468.60
2015,10,01,15,43,467.00
2015,10,01,15,44,463.40
2015,10,01,15,45,461.20
2015,10,01,15,46,460.60
2015,10,01,15,47,456.50
2015,10,01,15,48,455.00
2015,10,01,15,49,453.40
2015,10,01,15,50,452.00
2015,10,01,15,51,450.40
2015,10,01,15,52,446.10
2015,10,01,15,53,444.40
2015,10,01,15,54,442.20
2015,10,01,15,55,439.90
2015,10,01,15,56,438.30
2015,10,01,15,57,436.30
2015,10,01,15,58,433.80
2015,10,01,15,59,431.70
2015,10,01,16,00,430.20
2015,10,01,16,01,427.90
2015,10,01,16,02,425.60
2015,10,01,16,03,424.10
2015,10,01,16,04,419.60
2015,10,01,16,05,409.60
2015,10,01,16,06,416.60
2015,10,01,16,07,413.80
2015,10,01,16,08,411.60
2015,10,01,16,09,410.00
2015,10,01,16,10,407.60
2015,10,01,16,11,405.40
2015,10,01,16,12,403.50
2015,10,01,16,13,401.80
2015,10,01,16,14,399.40
2015,10,01,16,15,398.90
2015,10,01,16,16,395.60
2015,10,01,16,17,393.40
2015,10,01,16,18,389.90
2015,10,01,16,19,387.30
2015,10,01,16,20,387.00
2015,10,01,16,21,385.10
2015,10,01,16,22,384.00
2015,10,01,16,23,379.30
2015,10,01,16,24,378.00
2015,10,01,16,25,375.30
2015,10,01,16,26,371.50
2015,10,01,16,27,368.40
2015,10,01,16,28,352.80
2015,10,01,16,29,323.00
2015,10,01,16,30,309.50
2015,10,01,16,31,313.40
2015,10,01,16,32,345.60
2015,10,01,16,33,304.90
2015,10,01,16,34,228.00
2015,10,01,16,35,246.50
2015,10,01,16,36,269.40
2015,10,01,16,37,251.40
2015,10,01,16,38,322.50
2015,10,01,16,39,337.30
2015,10,01,16,40,333.40
2015,10,01,16,41,330.80
2015,10,01,16,42,326.80
2015,10,01,16,43,323.50
2015,10,01,16,44,322.10
2015,10,01,16,45,319.40
2015,10,01,16,46,315.70
2015,10,01,16,47,311.70
2015,10,01,16,48,299.60
2015,10,01,16,49,301.50
2015,10,01,16,50,296.10
2015,10,01,16,51,297.50
2015,10,01,16,52,292.70
2015,10,01,16,53,295.40
2015,10,01,16,54,295.20
2015,10,01,16,55,292.50
2015,10,01,16,56,288.20
2015,10,01,16,57,286.20
2015,10,01,16,58,281.50
2015,10,01,16,59,278.50
2015,10,01,17,00,278.00
2015,10,01,17,01,273.50
2015,10,01,17,02,270.90
2015,10,01,17,03,268.60
2015,10,01,17,04,266.30
2015,10,01,17,05,263.40
2015,10,01,17,06,260.70
2015,10,01,17,07,258.40
2015,10,01,17,08,256.60
2015,10,01,17,09,252.60
2015,10,01,17,10,250.60
2015,10,01,17,11,248.90
2015,10,01,17,12,246.70
2015,10,01,17,13,244.40
2015,10,01,17,14,242.60
2015,10,01,17,15,238.50
2015,10,01,17,16,236.60